| time (UTC) | temp C | wind direction | speed KPH | gust KPH | rain 1hr cm | rain 24hr cm | rain mn cm | humidity % | barometer mb |
| 20260506050837 | 10 | 20 | 9.7 | 0.0 | 0.00 | 0.00 | 0.00 | 100 | 1007.0 |
| 20260506044840 | 10 | 20 | 9.7 | 0.0 | 0.00 | 0.00 | 0.00 | 100 | 1007.0 |
| 20260506044543 | 10 | 20 | 9.7 | 0.0 | 0.00 | 0.00 | 0.00 | 100 | 1007.0 |
| 20260506043041 | 10 | 30 | 9.7 | 0.0 | 0.00 | 0.00 | 0.00 | 100 | 1007.0 |
| 20260506042838 | 10 | 30 | 9.7 | 0.0 | 0.00 | 0.00 | 0.00 | 100 | 1007.0 |
| 20260506041545 | 10 | 30 | 9.7 | 0.0 | 0.00 | 0.00 | 0.00 | 100 | 1007.0 |
| 20260506040837 | 10 | 20 | 9.7 | 0.0 | 0.00 | 0.00 | 0.00 | 100 | 1007.0 |
| 20260506040042 | 10 | 20 | 9.7 | 0.0 | 0.00 | 0.00 | 0.00 | 100 | 1007.0 |
| 20260506034840 | 10 | 20 | 9.7 | 0.0 | 0.00 | 0.00 | 0.00 | 100 | 1007.0 |
| 20260506034543 | 10 | 20 | 9.7 | 0.0 | 0.00 | 0.00 | 0.00 | 100 | 1007.0 |
| 20260506033041 | 10 | 10 | 8.0 | 0.0 | 0.00 | 0.00 | 0.00 | 93 | 1007.0 |
| 20260506032838 | 10 | 10 | 8.0 | 0.0 | 0.00 | 0.00 | 0.00 | 93 | 1007.0 |
| 20260506031544 | 10 | 10 | 8.0 | 0.0 | 0.00 | 0.00 | 0.00 | 93 | 1007.0 |
| 20260506030836 | 10 | 50 | 9.7 | 0.0 | 0.00 | 0.00 | 0.00 | 93 | 1008.0 |
| 20260506030042 | 10 | 50 | 9.7 | 0.0 | 0.00 | 0.00 | 0.00 | 93 | 1008.0 |
| 20260506024841 | 10 | 50 | 9.7 | 0.0 | 0.00 | 0.00 | 0.00 | 93 | 1008.0 |
| 20260506024543 | 10 | 50 | 9.7 | 0.0 | 0.00 | 0.00 | 0.00 | 93 | 1008.0 |
| 20260506023041 | 10 | 30 | 8.0 | 0.0 | 0.00 | 0.00 | 0.00 | 93 | 1008.0 |
| 20260506022839 | 10 | 30 | 8.0 | 0.0 | 0.00 | 0.00 | 0.00 | 93 | 1008.0 |
| 20260506021544 | 10 | 30 | 8.0 | 0.0 | 0.00 | 0.00 | 0.00 | 93 | 1008.0 |
| 20260506020838 | 10 | 20 | 4.8 | 0.0 | 0.00 | 0.00 | 0.00 | 93 | 1008.0 |
| 20260506020042 | 10 | 20 | 4.8 | 0.0 | 0.00 | 0.00 | 0.00 | 93 | 1008.0 |
| 20260506014842 | 10 | 20 | 4.8 | 0.0 | 0.00 | 0.00 | 0.00 | 93 | 1008.0 |
| 20260506014543 | 10 | 20 | 4.8 | 0.0 | 0.00 | 0.00 | 0.00 | 93 | 1008.0 |
| 20260506013041 | 10 | 30 | 11.3 | 0.0 | 0.00 | 0.00 | 0.00 | 93 | 1008.0 |
| 20260506012840 | 10 | 30 | 11.3 | 0.0 | 0.00 | 0.00 | 0.00 | 93 | 1008.0 |
| 20260506011544 | 10 | 30 | 11.3 | 0.0 | 0.00 | 0.00 | 0.00 | 93 | 1008.0 |
| 20260506010838 | 10 | 20 | 11.3 | 0.0 | 0.00 | 0.00 | 0.00 | 100 | 1008.0 |
| 20260506010042 | 10 | 20 | 11.3 | 0.0 | 0.00 | 0.00 | 0.00 | 100 | 1008.0 |
| 20260506004840 | 10 | 20 | 11.3 | 0.0 | 0.00 | 0.00 | 0.00 | 100 | 1008.0 |
| 20260506004543 | 10 | 20 | 11.3 | 0.0 | 0.00 | 0.00 | 0.00 | 100 | 1008.0 |
| 20260506003041 | 10 | 10 | 8.0 | 0.0 | 0.00 | 0.00 | 0.00 | 93 | 1008.0 |
| 20260506002839 | 10 | 10 | 8.0 | 0.0 | 0.00 | 0.00 | 0.00 | 93 | 1008.0 |
| 20260506001544 | 10 | 10 | 8.0 | 0.0 | 0.00 | 0.00 | 0.00 | 93 | 1008.0 |
| 20260506000837 | 10 | 360 | 4.8 | 0.0 | 0.00 | 0.00 | 0.00 | 100 | 1009.0 |
| 20260506000043 | 10 | 360 | 4.8 | 0.0 | 0.00 | 0.00 | 0.00 | 100 | 1009.0 |
| 20260505234840 | 10 | 360 | 4.8 | 0.0 | 0.00 | 0.00 | 0.00 | 100 | 1009.0 |
| 20260505234543 | 10 | 360 | 4.8 | 0.0 | 0.00 | 0.00 | 0.00 | 100 | 1009.0 |
| 20260505233041 | 10 | 10 | 8.0 | 0.0 | 0.00 | 0.00 | 0.00 | 100 | 1009.0 |
| 20260505232839 | 10 | 10 | 8.0 | 0.0 | 0.00 | 0.00 | 0.00 | 100 | 1009.0 |
| 20260505231544 | 10 | 10 | 8.0 | 0.0 | 0.00 | 0.00 | 0.00 | 100 | 1009.0 |
| 20260505230837 | 10 | 360 | 8.0 | 0.0 | 0.00 | 0.00 | 0.00 | 100 | 1009.0 |
| 20260505230042 | 10 | 360 | 8.0 | 0.0 | 0.00 | 0.00 | 0.00 | 100 | 1009.0 |
| 20260505224839 | 10 | 360 | 8.0 | 0.0 | 0.00 | 0.00 | 0.00 | 100 | 1009.0 |
| 20260505224542 | 10 | 360 | 8.0 | 0.0 | 0.00 | 0.00 | 0.00 | 100 | 1009.0 |
| 20260505223041 | 10 | 20 | 9.7 | 0.0 | 0.00 | 0.00 | 0.00 | 100 | 1009.0 |
| 20260505222838 | 10 | 20 | 9.7 | 0.0 | 0.00 | 0.00 | 0.00 | 100 | 1009.0 |
| 20260505221550 | 10 | 20 | 9.7 | 0.0 | 0.00 | 0.00 | 0.00 | 100 | 1009.0 |
| 20260505220836 | 10 | 360 | 9.7 | 0.0 | 0.00 | 0.00 | 0.00 | 93 | 1009.0 |
| 20260505220044 | 10 | 360 | 9.7 | 0.0 | 0.00 | 0.00 | 0.00 | 93 | 1009.0 |
| 20260505214846 | 10 | 360 | 9.7 | 0.0 | 0.00 | 0.00 | 0.00 | 93 | 1009.0 |
| 20260505214544 | 10 | 360 | 9.7 | 0.0 | 0.00 | 0.00 | 0.00 | 93 | 1009.0 |
| 20260505213041 | 10 | 20 | 9.7 | 0.0 | 0.00 | 0.00 | 0.00 | 93 | 1009.0 |
| 20260505212845 | 10 | 20 | 9.7 | 0.0 | 0.00 | 0.00 | 0.00 | 93 | 1009.0 |
| 20260505211544 | 10 | 20 | 9.7 | 0.0 | 0.00 | 0.00 | 0.00 | 93 | 1009.0 |
| 20260505210843 | 11 | 20 | 9.7 | 0.0 | 0.00 | 0.00 | 0.00 | 93 | 1009.0 |
| 20260505210044 | 11 | 20 | 9.7 | 0.0 | 0.00 | 0.00 | 0.00 | 93 | 1009.0 |
| 20260505204840 | 11 | 20 | 9.7 | 0.0 | 0.00 | 0.00 | 0.00 | 93 | 1009.0 |
| 20260505204542 | 11 | 20 | 9.7 | 0.0 | 0.00 | 0.00 | 0.00 | 93 | 1009.0 |
| 20260505203041 | 11 | 10 | 11.3 | 0.0 | 0.00 | 0.00 | 0.00 | 93 | 1009.0 |
| 20260505202838 | 11 | 10 | 11.3 | 0.0 | 0.00 | 0.00 | 0.00 | 93 | 1009.0 |
| 20260505201544 | 11 | 10 | 11.3 | 0.0 | 0.00 | 0.00 | 0.00 | 93 | 1009.0 |
| 20260505200836 | 11 | 360 | 9.7 | 0.0 | 0.00 | 0.00 | 0.00 | 93 | 1009.0 |
| 20260505200042 | 11 | 360 | 9.7 | 0.0 | 0.00 | 0.00 | 0.00 | 93 | 1009.0 |
| 20260505194839 | 11 | 360 | 9.7 | 0.0 | 0.00 | 0.00 | 0.00 | 93 | 1009.0 |
| 20260505194543 | 11 | 360 | 9.7 | 0.0 | 0.00 | 0.00 | 0.00 | 93 | 1009.0 |
| 20260505193041 | 12 | 350 | 11.3 | 0.0 | 0.00 | 0.00 | 0.00 | 93 | 1009.0 |
| 20260505192837 | 12 | 350 | 11.3 | 0.0 | 0.00 | 0.00 | 0.00 | 93 | 1009.0 |
| 20260505191544 | 12 | 350 | 11.3 | 0.0 | 0.00 | 0.00 | 0.00 | 93 | 1009.0 |
| 20260505190836 | 12 | 360 | 11.3 | 0.0 | 0.00 | 0.00 | 0.00 | 93 | 1009.0 |
| 20260505190043 | 12 | 360 | 11.3 | 0.0 | 0.00 | 0.00 | 0.00 | 93 | 1009.0 |
| 20260505184839 | 12 | 360 | 11.3 | 0.0 | 0.00 | 0.00 | 0.00 | 93 | 1009.0 |
| 20260505184543 | 12 | 360 | 11.3 | 0.0 | 0.00 | 0.00 | 0.00 | 93 | 1009.0 |
| 20260505183041 | 12 | 360 | 9.7 | 0.0 | 0.00 | 0.00 | 0.00 | 93 | 1009.0 |
| 20260505182837 | 12 | 360 | 9.7 | 0.0 | 0.00 | 0.00 | 0.00 | 93 | 1009.0 |
| 20260505181544 | 12 | 360 | 9.7 | 0.0 | 0.00 | 0.00 | 0.00 | 93 | 1009.0 |
| 20260505180835 | 12 | 350 | 9.7 | 0.0 | 0.00 | 0.00 | 0.00 | 87 | 1009.0 |
| 20260505180043 | 12 | 350 | 9.7 | 0.0 | 0.00 | 0.00 | 0.00 | 87 | 1009.0 |
| 20260505174839 | 12 | 350 | 9.7 | 0.0 | 0.00 | 0.00 | 0.00 | 87 | 1009.0 |
| 20260505174542 | 12 | 350 | 9.7 | 0.0 | 0.00 | 0.00 | 0.00 | 87 | 1009.0 |
| 20260505173041 | 12 | 360 | 11.3 | 0.0 | 0.00 | 0.00 | 0.00 | 87 | 1009.0 |
| 20260505172837 | 12 | 360 | 11.3 | 0.0 | 0.00 | 0.00 | 0.00 | 87 | 1009.0 |
| 20260505171544 | 12 | 360 | 11.3 | 0.0 | 0.00 | 0.00 | 0.00 | 87 | 1009.0 |
| 20260505170836 | 12 | 350 | 11.3 | 0.0 | 0.00 | 0.00 | 0.00 | 87 | 1009.0 |
| 20260505170043 | 12 | 350 | 11.3 | 0.0 | 0.00 | 0.00 | 0.00 | 87 | 1009.0 |
| 20260505164839 | 12 | 350 | 11.3 | 0.0 | 0.00 | 0.00 | 0.00 | 87 | 1009.0 |
| 20260505164543 | 12 | 350 | 11.3 | 0.0 | 0.00 | 0.00 | 0.00 | 87 | 1009.0 |
| 20260505163041 | 12 | 340 | 11.3 | 0.0 | 0.00 | 0.00 | 0.00 | 87 | 1009.0 |
| 20260505162838 | 12 | 340 | 11.3 | 0.0 | 0.00 | 0.00 | 0.00 | 87 | 1009.0 |
| 20260505161543 | 12 | 340 | 11.3 | 0.0 | 0.00 | 0.00 | 0.00 | 87 | 1009.0 |
| 20260505160836 | 12 | 10 | 11.3 | 0.0 | 0.00 | 0.00 | 0.00 | 87 | 1009.0 |
| 20260505153041 | 12 | 350 | 11.3 | 0.0 | 0.00 | 0.00 | 0.00 | 87 | 1009.0 |
| 20260505152839 | 12 | 350 | 11.3 | 0.0 | 0.00 | 0.00 | 0.00 | 87 | 1009.0 |
| 20260505151543 | 12 | 350 | 11.3 | 0.0 | 0.00 | 0.00 | 0.00 | 87 | 1009.0 |
| 20260505150837 | 12 | 360 | 9.7 | 0.0 | 0.00 | 0.00 | 0.00 | 93 | 1009.0 |
| 20260505124839 | 12 | 360 | 8.0 | 0.0 | 0.00 | 0.00 | 0.00 | 93 | 1010.0 |
| 20260505124542 | 12 | 360 | 8.0 | 0.0 | 0.00 | 0.00 | 0.00 | 93 | 1010.0 |
| 20260505123041 | 12 | 10 | 8.0 | 0.0 | 0.00 | 0.00 | 0.00 | 93 | 1010.0 |
| 20260505122837 | 12 | 10 | 8.0 | 0.0 | 0.00 | 0.00 | 0.00 | 93 | 1010.0 |
| 20260505121544 | 12 | 10 | 8.0 | 0.0 | 0.00 | 0.00 | 0.00 | 93 | 1010.0 |
| 20260505120836 | 12 | 40 | 4.8 | 0.0 | 0.00 | 0.00 | 0.00 | 93 | 1010.0 |
| 20260505120044 | 12 | 40 | 4.8 | 0.0 | 0.00 | 0.00 | 0.00 | 93 | 1010.0 |
| 20260505114838 | 12 | 40 | 4.8 | 0.0 | 0.00 | 0.00 | 0.00 | 93 | 1010.0 |
| 20260505114542 | 12 | 40 | 4.8 | 0.0 | 0.00 | 0.00 | 0.00 | 93 | 1010.0 |
| 20260505113041 | 12 | 60 | 9.7 | 0.0 | 0.00 | 0.00 | 0.00 | 100 | 1010.0 |
| 20260505112837 | 12 | 60 | 9.7 | 0.0 | 0.00 | 0.00 | 0.00 | 100 | 1010.0 |
| 20260505111543 | 12 | 60 | 9.7 | 0.0 | 0.00 | 0.00 | 0.00 | 100 | 1010.0 |
| 20260505110835 | 12 | 40 | 8.0 | 0.0 | 0.00 | 0.00 | 0.00 | 100 | 1010.0 |
| 20260505101544 | 12 | 80 | 8.0 | 0.0 | 0.00 | 0.00 | 0.00 | 93 | 1010.0 |
| 20260505100835 | 12 | 50 | 8.0 | 0.0 | 0.00 | 0.00 | 0.00 | 93 | 1011.0 |
| 20260505100042 | 12 | 50 | 8.0 | 0.0 | 0.00 | 0.00 | 0.00 | 93 | 1011.0 |
| 20260505094838 | 12 | 50 | 8.0 | 0.0 | 0.00 | 0.00 | 0.00 | 93 | 1011.0 |
| 20260505094542 | 12 | 50 | 8.0 | 0.0 | 0.00 | 0.00 | 0.00 | 93 | 1011.0 |
| 20260505093041 | 11 | 70 | 8.0 | 0.0 | 0.00 | 0.00 | 0.00 | 100 | 1010.0 |
| 20260505092837 | 11 | 70 | 8.0 | 0.0 | 0.00 | 0.00 | 0.00 | 100 | 1010.0 |
| 20260505091543 | 11 | 70 | 8.0 | 0.0 | 0.00 | 0.00 | 0.00 | 100 | 1010.0 |
| 20260505090835 | 11 | 40 | 4.8 | 0.0 | 0.00 | 0.00 | 0.00 | 93 | 1011.0 |
| 20260505090042 | 11 | 40 | 4.8 | 0.0 | 0.00 | 0.00 | 0.00 | 93 | 1011.0 |
| 20260505084840 | 11 | 40 | 4.8 | 0.0 | 0.00 | 0.00 | 0.00 | 93 | 1011.0 |
| 20260505084542 | 11 | 40 | 4.8 | 0.0 | 0.00 | 0.00 | 0.00 | 93 | 1011.0 |
| 20260505083040 | 11 | 0.0 | 0.0 | 0.00 | 0.00 | 0.00 | 87 | 1011.0 | |
| 20260505082838 | 11 | 0.0 | 0.0 | 0.00 | 0.00 | 0.00 | 87 | 1011.0 | |
| 20260505081543 | 11 | 0.0 | 0.0 | 0.00 | 0.00 | 0.00 | 87 | 1011.0 | |
| 20260505080836 | 11 | 20 | 9.7 | 0.0 | 0.00 | 0.00 | 0.00 | 93 | 1011.0 |
| 20260505080043 | 11 | 20 | 9.7 | 0.0 | 0.00 | 0.00 | 0.00 | 93 | 1011.0 |
| 20260505074839 | 11 | 20 | 9.7 | 0.0 | 0.00 | 0.00 | 0.00 | 93 | 1011.0 |
| 20260505074541 | 11 | 20 | 9.7 | 0.0 | 0.00 | 0.00 | 0.00 | 93 | 1011.0 |
| 20260505073040 | 10 | 290 | 3.2 | 0.0 | 0.00 | 0.00 | 0.00 | 100 | 1011.0 |
| 20260505072838 | 10 | 290 | 3.2 | 0.0 | 0.00 | 0.00 | 0.00 | 100 | 1011.0 |
| 20260505071542 | 10 | 290 | 3.2 | 0.0 | 0.00 | 0.00 | 0.00 | 100 | 1011.0 |
| 20260505070836 | 10 | 300 | 8.0 | 0.0 | 0.00 | 0.00 | 0.00 | 93 | 1011.0 |
| 20260505070041 | 10 | 300 | 8.0 | 0.0 | 0.00 | 0.00 | 0.00 | 93 | 1011.0 |
| 20260505064840 | 10 | 300 | 8.0 | 0.0 | 0.00 | 0.00 | 0.00 | 93 | 1011.0 |
| 20260505064541 | 10 | 300 | 8.0 | 0.0 | 0.00 | 0.00 | 0.00 | 93 | 1011.0 |
| 20260505063040 | 10 | 300 | 11.3 | 0.0 | 0.00 | 0.00 | 0.00 | 93 | 1011.0 |
| 20260505062838 | 10 | 300 | 11.3 | 0.0 | 0.00 | 0.00 | 0.00 | 93 | 1011.0 |
| 20260505061543 | 10 | 300 | 11.3 | 0.0 | 0.00 | 0.00 | 0.00 | 93 | 1011.0 |
| 20260505060836 | 11 | 0.0 | 0.0 | 0.00 | 0.00 | 0.00 | 87 | 1011.0 | |
| 20260505060043 | 11 | 0.0 | 0.0 | 0.00 | 0.00 | 0.00 | 87 | 1011.0 | |
| 20260505054840 | 11 | 0.0 | 0.0 | 0.00 | 0.00 | 0.00 | 87 | 1011.0 | |
| 20260505054541 | 11 | 0.0 | 0.0 | 0.00 | 0.00 | 0.00 | 87 | 1011.0 | |
| 20260505053040 | 10 | 0.0 | 0.0 | 0.00 | 0.00 | 0.00 | 93 | 1011.0 |